[[{"header":{"parameterUnit":"m.s-1","parameterCategory":1,"la1":30.2991,"la2":30.254,"lo1":-89.0895,"lo2":-89.0444,"dy":0.0017,"dx":0.0017,"nx":28,"ny":28,"refTime":"2023-10-28T09:00:00:Z","depth":0,"parameterNumber":2,"parameterNumberName":"U-component_of_WINDS"},"data":[0,0,0,0,0,0,0,0,0,0,0,0,0,0,0,0,0,0,0,0,0,0,0,0,0,0,0,0,0,0,0,0,0,0,0,0,0,0,0,0,0,0,0,0,0,0,0,0,0,0,0,0,0,0,0,0,0,0,-2.6078,-2.6078,0,-2.6143,-2.6144,-2.6145,-2.6035,-2.6031,-2.6028,-2.6024,-2.6096,-2.6101,-2.6107,0,0,0,0,0,0,0,0,0,0,0,0,0,-2.5864,-2.5868,-2.6078,-2.6078,-2.6079,-2.6143,-2.6144,-2.6145,-2.6036,-2.6031,-2.6027,-2.6022,-2.6094,-2.6101,-2.6107,0,0,0,0,0,0,0,0,0,0,0,0,0,-2.5946,-2.5869,-2.6077,-2.6032,-2.6029,-2.6143,-2.6144,-2.6145,-2.6037,-2.6031,-2.6025,-2.602,-2.6092,-2.61,-2.6108,-2.627,0,0,-2.6133,-2.6136,0,0,0,0,0,0,0,0,-2.5941,-2.5954,-2.6038,-2.6036,-2.6032,-2.6075,-2.6095,-2.6187,-2.6038,-2.6034,-2.6024,-2.6017,-2.6094,-2.6102,-2.6126,-2.6274,-2.6277,-2.6134,-2.6138,-2.6142,-2.6144,0,0,0,0,0,0,0,-2.5936,-2.595,-2.6104,-2.604,-2.6036,-2.6011,-2.6016,-2.6112,-2.6095,-2.6034,-2.6026,-2.6035,-2.6091,-2.6119,-2.6127,-2.6278,-2.6133,-2.6141,-2.6146,-2.6149,-2.6564,-2.657,0,0,0,0,0,0,-2.5935,-2.5946,-2.6101,-2.6106,-2.5972,-2.6019,-2.6025,-2.6067,-2.6093,-2.6092,-2.604,-2.603,-2.6108,-2.6118,-2.6129,-2.6323,-2.6142,-2.615,-2.6154,-2.6558,-2.6566,-2.6572,0,0,0,0,0,0,-2.5931,-2.595,-2.6099,-2.6024,-2.6041,-2.6029,-2.6077,-2.6071,-2.6099,-2.6098,-2.6095,-2.6071,-2.6104,-2.6118,-2.6236,-2.6324,-2.6153,-2.6161,-2.6551,-2.6561,-2.6569,-2.671,0,0,0,0,0,0,-2.5925,-2.5949,-2.6009,-2.6026,-2.6045,-2.6204,-2.6082,-2.6077,-2.6112,-2.61,-2.6126,-2.6125,-2.61,-2.6225,-2.6244,-2.6332,-2.6167,-2.6543,-2.6555,-2.6566,-2.6698,-2.6723,-2.6745,0,0,0,0,0,-2.5918,-2.6047,-2.6013,-2.6032,-2.612,-2.6209,-2.622,-2.6187,-2.612,-2.6181,-2.6181,-2.6124,-2.6311,-2.6238,-2.6259,-2.635,-2.6538,-2.6552,-2.6565,-2.6687,-2.6718,-2.6744,0,0,0,0,0,0,-2.6041,-2.6048,-2.601,-2.6148,-2.6179,-2.619,-2.6266,-2.6221,-2.6273,-2.6259,-2.6218,-2.6225,-2.6353,-2.6363,-2.6282,-2.651,-2.6413,-2.6432,-2.6498,-2.6528,-2.6551,-2.6547,-2.6174,0,0,0,0,0,-2.6085,-2.6154,-2.6157,-2.6279,-2.6296,-2.6279,-2.6316,-2.6289,-2.6319,-2.6332,-2.634,-2.6373,-2.6439,-2.6484,-2.6545,-2.6698,-2.6704,-2.6772,-2.6795,-2.6815,-2.6832,-2.6916,-2.6947,-2.6618,-2.6618,-2.6618,0,0,-2.6175,-2.6187,-2.6234,-2.6304,-2.6324,-2.6399,-2.629,-2.6374,-2.643,-2.6345,-2.6457,-2.6465,-2.6499,-2.6637,-2.6698,-2.6649,-2.6924,-2.6832,-2.6848,-2.6854,-2.6934,-2.6965,-2.6992,-2.6628,-2.6626,-2.6624,0,0,-2.6378,-2.6393,-2.6497,-2.652,-2.6552,-2.654,-2.6565,-2.6584,-2.6585,-2.6697,-2.6635,-2.6702,-2.6816,-2.6844,-2.6873,-2.7089,-2.7039,-2.711,-2.7234,-2.7316,-2.7342,-2.7365,-2.7444,-2.7472,-2.7127,-2.7127,-2.7127,0,-2.6487,-2.6595,-2.6557,-2.6645,-2.6679,-2.6604,-2.671,-2.6735,-2.6786,-2.6812,-2.6756,-2.6899,-2.6917,-2.7061,-2.7113,-2.7139,-2.7168,-2.7107,-2.7341,-2.7364,-2.7384,-2.7459,-2.7489,-2.7135,-2.7134,-2.7134,-2.7133,0,-2.6729,-2.6806,-2.6886,-2.6936,-2.6978,-2.7076,-2.7053,-2.7102,-2.7071,-2.7066,-2.7182,-2.7201,-2.7265,-2.7297,-2.7268,-2.7438,-2.7407,-2.7347,-2.7249,-2.7425,-2.7495,-2.7523,-2.7148,-2.7145,-2.7142,-2.714,0,0,-2.7011,-2.7039,-2.7069,-2.7092,-2.7122,-2.7182,-2.7277,-2.7338,-2.7381,-2.742,-2.7499,-2.7599,-2.7544,-2.7577,-2.7551,-2.7623,-2.7796,-2.7555,-2.7555,-2.7601,-2.7986,-2.8032,-2.8066,-2.7763,-2.7768,-2.7772,-2.7984,0,-2.7214,-2.7375,-2.7344,-2.7503,-2.7575,-2.7506,-2.7589,-2.7618,-2.7616,-2.7679,-2.7677,-2.7748,-2.767,-2.769,-2.7758,-2.776,-2.7873,-2.7744,-2.7839,-2.7843,-2.7834,-2.8102,-2.815,-2.8349,-2.8011,-2.8015,-2.8019,0,-2.7472,-2.7519,-2.7685,-2.7706,-2.7735,-2.781,-2.7865,-2.7924,-2.7957,-2.7951,-2.7989,-2.7949,-2.8046,-2.7946,-2.808,-2.7994,-2.8031,-2.8038,-2.8045,-2.8053,-2.7942,-2.8119,-2.8412,-2.8442,-2.8061,-2.8058,-2.8055,0,-2.7664,-2.7769,-2.7882,-2.7903,-2.793,-2.7984,-2.7998,-2.8025,-2.8065,-2.8113,-2.8139,-2.8199,-2.8233,-2.8281,-2.826,-2.8188,-2.8399,-2.8296,-2.8398,-2.8399,-2.8446,-2.8444,-2.875,-2.8468,-2.8468,-2.8467,-2.8467,0,-2.7894,-2.7999,-2.7968,-2.8038,-2.8154,-2.8118,-2.8235,-2.8241,-2.8266,-2.8337,-2.8281,-2.835,-2.8317,-2.8384,-2.8369,-2.8483,-2.8498,-2.8498,-2.8493,-2.8504,-2.8504,-2.8528,-2.8514,-2.8475,-2.8473,-2.8472,-2.8471,0,-2.8127,-2.8111,-2.823,-2.8246,-2.8252,-2.8338,-2.8352,-2.8418,-2.8412,-2.8504,-2.8523,-2.8515,-2.8591,-2.8575,-2.8659,-2.8648,-2.8793,-2.877,-2.8782,-2.8777,-2.888,-2.8871,-2.9214,-2.9258,-2.8946,-2.8949,-2.8952,0,-2.8276,-2.8355,-2.8379,-2.8423,-2.8441,-2.8511,-2.8551,-2.852,-2.8564,-2.8609,-2.8671,-2.8742,-2.8797,-2.8922,-2.8925,-2.899,-2.8969,-2.9084,-2.8978,-2.8987,-2.8973,-2.8969,-2.8977,-2.9106,-2.9109,-2.9112,-2.9115,0,-2.8542,-2.853,-2.859,-2.8648,-2.8697,-2.8741,-2.878,-2.8819,-2.8791,-2.8845,-2.8921,-2.8964,-2.905,-2.9123,-2.9183,-2.9199,-2.9154,-2.9148,-2.9175,-2.9188,-2.9192,-2.9193,-2.8841,-2.914,-2.9138,-2.9136,-2.9135,-2.9134,-2.8738,-2.8806,-2.8834,-2.8903,-2.8929,-2.8967,-2.9031,-2.9034,-2.9097,-2.9163,-2.9141,-2.923,-2.9263,-2.9338,-2.9362,-2.9432,-2.9389,-2.9428,-2.9438,-2.9449,-2.9462,-2.918,-2.9443,-2.9442,-2.9442,-2.9441,-2.944,0,-2.9003,-2.9018,-2.9081,-2.9138,-2.9193,-2.9144,-2.9185,-2.9235,-2.9313,-2.9347,-2.9402,-2.9492,-2.9562,-2.9571,-2.9638,-2.9693,-2.9674,-2.9712,-2.9708,-2.9713,-2.9496,-2.9467,-2.9726,-2.9726,-2.9726,-2.9726,-2.9726,-2.9726,-2.9147,-2.9259,-2.9252,-2.9378,-2.9392,-2.9478,-2.9506,-2.9542,-2.9569,-2.9671,-2.9729,-2.9734,-2.9759,-2.9827,-2.989,-2.9891,-2.9919,-2.9966,-2.9959,-2.9757,-2.9728,-2.9701,-2.9673,-2.9972,-2.9972,-3.017,-3.0172,-3.0174]},{"header":{"parameterUnit":"m.s-1","parameterCategory":1,"la1":30.2991,"la2":30.254,"lo1":-89.0895,"lo2":-89.0444,"dy":0.0017,"dx":0.0017,"nx":28,"ny":28,"refTime":"2023-10-28T09:00:00:Z","depth":0,"parameterNumber":3,"parameterNumberName":"V-component_of_WINDS"},"data":[0,0,0,0,0,0,0,0,0,0,0,0,0,0,0,0,0,0,0,0,0,0,0,0,0,0,0,0,0,0,0,0,0,0,0,0,0,0,0,0,0,0,0,0,0,0,0,0,0,0,0,0,0,0,0,0,0,0,-0.7681,-0.7682,0,-0.7798,-0.7799,-0.7801,-0.7889,-0.789,-0.7891,-0.7892,-0.8014,-0.8017,-0.8019,0,0,0,0,0,0,0,0,0,0,0,0,0,-0.7535,-0.7537,-0.768,-0.7682,-0.7683,-0.7798,-0.7799,-0.7801,-0.7889,-0.789,-0.7891,-0.7892,-0.8014,-0.8016,-0.802,0,0,0,0,0,0,0,0,0,0,0,0,0,-0.762,-0.7538,-0.768,-0.7741,-0.7748,-0.7797,-0.7799,-0.7801,-0.7889,-0.789,-0.7891,-0.7892,-0.8013,-0.8016,-0.802,-0.8019,0,0,-0.8031,-0.8033,0,0,0,0,0,0,0,0,-0.7615,-0.7625,-0.7731,-0.7737,-0.7745,-0.783,-0.7793,-0.7874,-0.7889,-0.7835,-0.7892,-0.7893,-0.7952,-0.7961,-0.7981,-0.8025,-0.803,-0.8032,-0.8034,-0.8036,-0.8037,0,0,0,0,0,0,0,-0.7609,-0.7621,-0.7727,-0.7732,-0.7741,-0.7763,-0.7777,-0.7809,-0.7886,-0.784,-0.7847,-0.7859,-0.7956,-0.7977,-0.7984,-0.8032,-0.8032,-0.8035,-0.8037,-0.8039,-0.8082,-0.8081,0,0,0,0,0,0,-0.7593,-0.7615,-0.7723,-0.7731,-0.7681,-0.7765,-0.778,-0.7801,-0.7886,-0.79,-0.7858,-0.7863,-0.797,-0.798,-0.7989,-0.7993,-0.8036,-0.8039,-0.8041,-0.8083,-0.8081,-0.808,0,0,0,0,0,0,-0.759,-0.7602,-0.7719,-0.7675,-0.7691,-0.7766,-0.779,-0.7803,-0.7824,-0.7899,-0.7914,-0.7865,-0.7971,-0.7983,-0.8011,-0.7998,-0.8041,-0.8044,-0.8084,-0.8082,-0.8081,-0.8001,0,0,0,0,0,0,-0.7585,-0.76,-0.76,-0.7674,-0.7693,-0.7737,-0.7789,-0.7805,-0.783,-0.7837,-0.7909,-0.7922,-0.7973,-0.8005,-0.8014,-0.8004,-0.8047,-0.8086,-0.8083,-0.8081,-0.8005,-0.7997,-0.799,0,0,0,0,0,-0.758,-0.7574,-0.76,-0.7612,-0.7694,-0.7737,-0.7748,-0.7805,-0.7828,-0.7829,-0.7878,-0.792,-0.7998,-0.8007,-0.8019,-0.8009,-0.8087,-0.8084,-0.8081,-0.8009,-0.7999,-0.799,0,0,0,0,0,0,-0.7498,-0.7585,-0.7614,-0.7632,-0.7676,-0.7751,-0.7754,-0.7793,-0.7832,-0.7838,-0.7908,-0.7924,-0.7943,-0.798,-0.7987,-0.8013,-0.8048,-0.8048,-0.7988,-0.798,-0.7972,-0.7963,-0.805,0,0,0,0,0,-0.7481,-0.7507,-0.7583,-0.7591,-0.7611,-0.7678,-0.7699,-0.774,-0.7789,-0.7808,-0.7859,-0.7905,-0.7941,-0.7962,-0.7999,-0.8011,-0.8028,-0.8011,-0.8003,-0.7997,-0.7995,-0.8004,-0.7997,-0.8072,-0.8072,-0.8072,0,0,-0.7448,-0.7499,-0.7511,-0.7575,-0.7614,-0.764,-0.7694,-0.7719,-0.7739,-0.7812,-0.7841,-0.7879,-0.7936,-0.7956,-0.7967,-0.7987,-0.7979,-0.7993,-0.7987,-0.799,-0.8001,-0.7994,-0.7987,-0.807,-0.807,-0.8071,0,0,-0.7401,-0.7442,-0.7453,-0.7491,-0.7549,-0.7594,-0.7596,-0.7666,-0.7694,-0.7724,-0.7779,-0.7804,-0.7864,-0.7902,-0.7929,-0.7896,-0.7936,-0.7906,-0.7865,-0.7873,-0.7867,-0.7863,-0.785,-0.7845,-0.7904,-0.7904,-0.7904,0,-0.7353,-0.7393,-0.7454,-0.7476,-0.7503,-0.7569,-0.7581,-0.7615,-0.7682,-0.7699,-0.772,-0.7795,-0.7838,-0.7868,-0.7859,-0.7879,-0.7885,-0.7897,-0.7863,-0.7859,-0.7855,-0.7844,-0.784,-0.79,-0.7901,-0.7901,-0.7901,0,-0.7331,-0.7358,-0.736,-0.7422,-0.7449,-0.7466,-0.753,-0.755,-0.7588,-0.7631,-0.766,-0.7714,-0.7763,-0.7773,-0.7811,-0.7808,-0.7818,-0.785,-0.7886,-0.7843,-0.7834,-0.783,-0.7894,-0.7896,-0.7897,-0.7898,0,0,-0.7235,-0.733,-0.733,-0.7358,-0.7427,-0.745,-0.747,-0.7516,-0.7532,-0.7576,-0.7595,-0.7643,-0.7673,-0.7704,-0.7747,-0.7754,-0.7724,-0.7786,-0.7788,-0.7772,-0.7723,-0.7697,-0.7692,-0.7751,-0.7751,-0.775,-0.7718,0,-0.7198,-0.7236,-0.7291,-0.7312,-0.7338,-0.7401,-0.7419,-0.7463,-0.7503,-0.7532,-0.7578,-0.761,-0.7648,-0.7667,-0.7677,-0.7725,-0.7715,-0.7728,-0.7769,-0.777,-0.7752,-0.7687,-0.7661,-0.7627,-0.7715,-0.7714,-0.7714,0,-0.716,-0.7199,-0.7221,-0.7288,-0.7301,-0.7315,-0.7362,-0.7388,-0.744,-0.747,-0.7503,-0.755,-0.7575,-0.7608,-0.7643,-0.7651,-0.7672,-0.7698,-0.7698,-0.7704,-0.7739,-0.769,-0.7618,-0.7613,-0.7709,-0.7709,-0.771,0,-0.7086,-0.7145,-0.7166,-0.7189,-0.7267,-0.7276,-0.7309,-0.7362,-0.7386,-0.7427,-0.7444,-0.7488,-0.7512,-0.7545,-0.7603,-0.7622,-0.7632,-0.767,-0.7657,-0.7655,-0.7656,-0.7655,-0.7585,-0.767,-0.767,-0.767,-0.767,0,-0.7039,-0.705,-0.7134,-0.7147,-0.7161,-0.7225,-0.7238,-0.7277,-0.7323,-0.7345,-0.7404,-0.7423,-0.7498,-0.7527,-0.7572,-0.7594,-0.7605,-0.763,-0.7641,-0.7624,-0.762,-0.7638,-0.7641,-0.7669,-0.7669,-0.7669,-0.767,0,-0.6959,-0.7016,-0.7043,-0.7114,-0.7132,-0.7139,-0.7201,-0.7216,-0.726,-0.7287,-0.7297,-0.7367,-0.7403,-0.7464,-0.7519,-0.7549,-0.7563,-0.7583,-0.7544,-0.7551,-0.7535,-0.7535,-0.7473,-0.7468,-0.7556,-0.7555,-0.7554,0,-0.6925,-0.6934,-0.7006,-0.7024,-0.7055,-0.7084,-0.7109,-0.7172,-0.7196,-0.7255,-0.7263,-0.7304,-0.734,-0.7396,-0.7452,-0.7494,-0.7515,-0.7491,-0.7522,-0.7504,-0.7514,-0.7512,-0.7514,-0.7483,-0.7482,-0.7481,-0.748,0,-0.6857,-0.6884,-0.6917,-0.6959,-0.6987,-0.7024,-0.7064,-0.7075,-0.7148,-0.7172,-0.7209,-0.7237,-0.7292,-0.7332,-0.7382,-0.7418,-0.7461,-0.747,-0.7469,-0.7451,-0.7427,-0.7439,-0.7524,-0.7471,-0.7472,-0.7472,-0.7473,-0.7473,-0.6799,-0.681,-0.6862,-0.6896,-0.6933,-0.6968,-0.6986,-0.7031,-0.7063,-0.7112,-0.7148,-0.7183,-0.7236,-0.7307,-0.734,-0.7369,-0.7388,-0.7387,-0.7387,-0.7385,-0.7378,-0.7423,-0.7378,-0.7379,-0.7379,-0.7379,-0.7379,0,-0.6733,-0.677,-0.6801,-0.6854,-0.6881,-0.6918,-0.6964,-0.6985,-0.7014,-0.7059,-0.7093,-0.7136,-0.7175,-0.7233,-0.7277,-0.7289,-0.731,-0.7298,-0.7297,-0.7305,-0.7359,-0.7354,-0.728,-0.728,-0.728,-0.728,-0.728,-0.728,-0.6702,-0.6723,-0.6757,-0.6796,-0.6833,-0.6867,-0.689,-0.6923,-0.6959,-0.7004,-0.7036,-0.7073,-0.7124,-0.7172,-0.7209,-0.7226,-0.7239,-0.7221,-0.7243,-0.7292,-0.7301,-0.731,-0.7306,-0.7223,-0.7223,-0.7187,-0.7187,-0.7187]}]]